Location: Omaha
(41.2590°N, 95.9380°W)
Time: 09:24:02
(UTC-06:00)

Vanguard 3 - Visible Passes

Search period start: 11 December 2017 00:00
Search period end: 21 December 2017 00:00
Orbit: 509 x 3263 km, 33.3° (Epoch: 10 December)

Date Brightness Start Highest point End Pass type
(mag) Time Alt. Az. Time Alt. Az. Time Alt. Az.
11 Dec 9.1 17:25:25 10° WSW 17:28:57 23° S 17:33:47 10° SE visible
11 Dec 10.3 19:39:13 10° SW 19:40:49 11° SSW 19:42:36 10° S visible
12 Dec 9.9 18:24:18 10° SW 18:27:03 14° SSW 18:30:27 10° SSE visible
